Retour au catalogue

SL-3 R/B

ActifPO
NORAD 12904·ROCKET BODY·🇷🇺 Russia

Lancé Oct 13, 1981 depuis Plesetsk Cosmodrome

Loading…

Prochains Passages (prochaines 24 heures)

TLE

FraisSource: Space-Track

Époque: Sep 14, 2026, 21:21 UTC

1 12904U 81103B   26257.89006843  .00003800  00000-0  16069-3 0  9995
2 12904  81.1614 351.1895 0012735  12.6170 347.5378 15.22899890  2020

Suivez SL-3 R/B en temps réel avec AllMySat

Download on the App Store